Time,TemperatureF,DewpointF,PressureIn,WindDirection,WindDirectionDegrees,WindSpeedMPH,WindSpeedGustMPH,Humidity,HourlyPrecipIn,Conditions,Clouds,dailyrainin,SoftwareType,DateUTC
2013-08-14 00:01:00,53.0,48.0,-100.00,West,261,4.0,8.0,84,0.00,,,-99.99,,2013-08-14 08:01:00,
2013-08-14 00:11:00,53.0,48.0,-100.00,West,261,4.0,8.0,84,0.00,,,-99.99,,2013-08-14 08:11:00,
2013-08-14 00:21:00,53.0,48.0,-100.00,West,261,4.0,8.0,84,0.00,,,-99.99,,2013-08-14 08:21:00,
2013-08-14 00:30:00,53.0,48.0,-100.00,WSW,256,6.0,8.0,84,0.00,,,-99.99,,2013-08-14 08:30:00,
2013-08-14 00:52:00,53.0,48.0,-100.00,WSW,256,6.0,8.0,84,0.00,,,-99.99,,2013-08-14 08:52:00,
2013-08-14 01:02:00,53.0,48.0,-100.00,WSW,256,6.0,8.0,84,0.00,,,-99.99,,2013-08-14 09:02:00,
2013-08-14 01:11:00,53.0,48.0,-100.00,WSW,256,6.0,8.0,84,0.00,,,-99.99,,2013-08-14 09:11:00,
2013-08-14 01:21:00,53.0,48.0,-100.00,WSW,256,6.0,8.0,84,0.00,,,-99.99,,2013-08-14 09:21:00,
2013-08-14 01:30:00,51.0,48.0,-100.00,SW,232,4.0,6.0,89,0.00,,,-99.99,,2013-08-14 09:30:00,
2013-08-14 01:53:00,51.0,48.0,-100.00,SW,232,4.0,6.0,89,0.00,,,-99.99,,2013-08-14 09:53:00,
2013-08-14 02:03:00,51.0,48.0,-100.00,SW,232,4.0,6.0,89,0.00,,,-99.99,,2013-08-14 10:03:00,
2013-08-14 02:11:00,51.0,48.0,-100.00,SW,232,4.0,6.0,89,0.00,,,-99.99,,2013-08-14 10:11:00,
2013-08-14 02:22:00,51.0,48.0,-100.00,SW,232,4.0,6.0,89,0.00,,,-99.99,,2013-08-14 10:22:00,
2013-08-14 02:30:00,50.0,48.0,-100.00,ENE,78,1.0,4.0,93,0.00,,,-99.99,,2013-08-14 10:30:00,
2013-08-14 02:52:00,50.0,48.0,-100.00,ENE,78,1.0,4.0,93,0.00,,,-99.99,,2013-08-14 10:52:00,
2013-08-14 03:02:00,50.0,48.0,-100.00,ENE,78,1.0,4.0,93,0.00,,,-99.99,,2013-08-14 11:02:00,
2013-08-14 03:11:00,50.0,48.0,-100.00,ENE,78,1.0,4.0,93,0.00,,,-99.99,,2013-08-14 11:11:00,
2013-08-14 03:21:00,50.0,48.0,-100.00,ENE,78,1.0,4.0,93,0.00,,,-99.99,,2013-08-14 11:21:00,
2013-08-14 03:30:00,49.0,48.0,-100.00,East,89,4.0,6.0,96,0.00,,,-99.99,,2013-08-14 11:30:00,
2013-08-14 03:52:00,49.0,48.0,-100.00,East,89,4.0,6.0,96,0.00,,,-99.99,,2013-08-14 11:52:00,
2013-08-14 04:01:00,49.0,48.0,-100.00,East,89,4.0,6.0,96,0.00,,,-99.99,,2013-08-14 12:01:00,
2013-08-14 04:11:00,49.0,48.0,-100.00,East,89,4.0,6.0,96,0.00,,,-99.99,,2013-08-14 12:11:00,
2013-08-14 04:21:00,49.0,48.0,-100.00,East,89,4.0,6.0,96,0.00,,,-99.99,,2013-08-14 12:21:00,
2013-08-14 04:30:00,48.0,47.0,-100.00,NE,34,4.0,6.0,96,0.00,,,-99.99,,2013-08-14 12:30:00,
2013-08-14 04:52:00,48.0,47.0,-100.00,NE,34,4.0,6.0,96,0.00,,,-99.99,,2013-08-14 12:52:00,
2013-08-14 05:02:00,48.0,47.0,-100.00,NE,34,4.0,6.0,96,0.00,,,-99.99,,2013-08-14 13:02:00,
2013-08-14 05:11:00,48.0,47.0,-100.00,NE,34,4.0,6.0,96,0.00,,,-99.99,,2013-08-14 13:11:00,
2013-08-14 05:21:00,48.0,47.0,-100.00,NE,34,4.0,6.0,96,0.00,,,-99.99,,2013-08-14 13:21:00,
2013-08-14 05:30:00,47.0,46.0,-100.00,SE,130,3.0,4.0,97,0.00,,,-99.99,,2013-08-14 13:30:00,
2013-08-14 05:52:00,47.0,46.0,-100.00,SE,130,3.0,4.0,97,0.00,,,-99.99,,2013-08-14 13:52:00,
2013-08-14 06:01:00,47.0,46.0,-100.00,SE,130,3.0,4.0,97,0.00,,,-99.99,,2013-08-14 14:01:00,
2013-08-14 06:11:00,47.0,46.0,-100.00,SE,130,3.0,4.0,97,0.00,,,-99.99,,2013-08-14 14:11:00,
2013-08-14 06:21:00,47.0,46.0,-100.00,SE,130,3.0,4.0,97,0.00,,,-99.99,,2013-08-14 14:21:00,
2013-08-14 06:30:00,47.0,46.0,-100.00,ENE,76,7.0,10.0,97,0.00,,,-99.99,,2013-08-14 14:30:00,
2013-08-14 06:52:00,47.0,46.0,-100.00,ENE,76,7.0,10.0,97,0.00,,,-99.99,,2013-08-14 14:52:00,
2013-08-14 07:02:00,47.0,46.0,-100.00,ENE,76,7.0,10.0,97,0.00,,,-99.99,,2013-08-14 15:02:00,
2013-08-14 07:11:00,47.0,46.0,-100.00,ENE,76,7.0,10.0,97,0.00,,,-99.99,,2013-08-14 15:11:00,
2013-08-14 07:22:00,47.0,46.0,-100.00,ENE,76,7.0,10.0,97,0.00,,,-99.99,,2013-08-14 15:22:00,
2013-08-14 07:30:00,47.0,46.0,-100.00,NE,56,12.0,13.0,96,0.00,,,-99.99,,2013-08-14 15:30:00,
2013-08-14 07:57:00,47.0,46.0,-100.00,NE,56,12.0,13.0,96,0.00,,,-99.99,,2013-08-14 15:57:00,
2013-08-14 08:04:00,47.0,46.0,-100.00,NE,56,12.0,13.0,96,0.00,,,-99.99,,2013-08-14 16:04:00,
2013-08-14 08:13:00,47.0,46.0,-100.00,NE,56,12.0,13.0,96,0.00,,,-99.99,,2013-08-14 16:13:00,
2013-08-14 08:25:00,47.0,46.0,-100.00,NE,56,12.0,13.0,96,0.00,,,-99.99,,2013-08-14 16:25:00,
2013-08-14 08:30:00,47.0,47.0,-100.00,NE,55,8.0,10.0,99,0.00,,,-99.99,,2013-08-14 16:30:00,
2013-08-14 09:04:00,47.0,47.0,-100.00,NE,55,8.0,10.0,99,0.00,,,-99.99,,2013-08-14 17:04:00,
2013-08-14 09:20:00,47.0,47.0,-100.00,NE,55,8.0,10.0,99,0.00,,,-99.99,,2013-08-14 17:20:00,
2013-08-14 09:28:00,47.0,47.0,-100.00,NE,55,8.0,10.0,99,0.00,,,-99.99,,2013-08-14 17:28:00,
2013-08-14 09:30:00,48.0,48.0,-100.00,ENE,70,6.0,7.0,99,0.00,,,-99.99,,2013-08-14 17:30:00,
2013-08-14 09:55:00,48.0,48.0,-100.00,ENE,70,6.0,7.0,99,0.00,,,-99.99,,2013-08-14 17:55:00,
2013-08-14 10:05:00,48.0,48.0,-100.00,ENE,70,6.0,7.0,99,0.00,,,-99.99,,2013-08-14 18:05:00,
2013-08-14 10:24:00,48.0,-99.9,-100.00,ENE,70,6.0,7.0,99,0.00,,,-99.99,,2013-08-14 18:24:00,
2013-08-14 11:01:00,50.0,49.0,-100.00,NNE,22,4.0,6.0,98,0.00,,,-99.99,,2013-08-14 19:01:00,
2013-08-14 11:13:00,50.0,49.0,-100.00,NNE,22,4.0,6.0,98,0.00,,,-99.99,,2013-08-14 19:13:00,
2013-08-14 11:56:00,52.0,49.0,-100.00,North,5,3.0,4.0,90,0.00,,,-99.99,,2013-08-14 19:56:00,
2013-08-14 12:04:00,52.0,49.0,-100.00,North,5,3.0,4.0,90,0.00,,,-99.99,,2013-08-14 20:04:00,
2013-08-14 12:11:00,52.0,49.0,-100.00,North,5,3.0,4.0,90,0.00,,,-99.99,,2013-08-14 20:11:00,
2013-08-14 12:30:00,54.0,50.0,-100.00,NE,56,2.0,3.0,88,0.00,,,-99.99,,2013-08-14 20:30:00,
2013-08-14 12:52:00,54.0,50.0,-100.00,NE,56,2.0,3.0,88,0.00,,,-99.99,,2013-08-14 20:52:00,
2013-08-14 13:05:00,54.0,50.0,-100.00,NE,56,2.0,3.0,88,0.00,,,-99.99,,2013-08-14 21:05:00,
2013-08-14 13:13:00,54.0,50.0,-100.00,NE,56,2.0,3.0,88,0.00,,,-99.99,,2013-08-14 21:13:00,
2013-08-14 13:23:00,54.0,50.0,-100.00,NE,56,2.0,3.0,88,0.00,,,-99.99,,2013-08-14 21:23:00,
2013-08-14 13:30:00,55.0,51.0,-100.00,SSE,158,3.0,4.0,84,0.00,,,-99.99,,2013-08-14 21:30:00,
2013-08-14 13:55:00,55.0,51.0,-100.00,SSE,158,3.0,4.0,84,0.00,,,-99.99,,2013-08-14 21:55:00,
2013-08-14 14:04:00,55.0,51.0,-100.00,SSE,158,3.0,4.0,84,0.00,,,-99.99,,2013-08-14 22:04:00,
2013-08-14 14:13:00,55.0,51.0,-100.00,SSE,158,3.0,4.0,84,0.00,,,-99.99,,2013-08-14 22:13:00,
2013-08-14 14:23:00,55.0,51.0,-100.00,SSE,158,3.0,4.0,84,0.00,,,-99.99,,2013-08-14 22:23:00,
2013-08-14 14:30:00,56.0,47.0,-100.00,WSW,252,8.0,10.0,71,0.00,,,-99.99,,2013-08-14 22:30:00,
2013-08-14 14:54:00,56.0,47.0,-100.00,WSW,252,8.0,10.0,71,0.00,,,-99.99,,2013-08-14 22:54:00,
2013-08-14 15:05:00,56.0,47.0,-100.00,WSW,252,8.0,10.0,71,0.00,,,-99.99,,2013-08-14 23:05:00,
2013-08-14 15:13:00,56.0,47.0,-100.00,WSW,252,8.0,10.0,71,0.00,,,-99.99,,2013-08-14 23:13:00,
2013-08-14 15:24:00,56.0,47.0,-100.00,WSW,252,8.0,10.0,71,0.00,,,-99.99,,2013-08-14 23:24:00,
2013-08-14 15:30:00,55.0,50.0,-100.00,WSW,254,11.0,16.0,83,0.00,,,-99.99,,2013-08-14 23:30:00,
2013-08-14 16:23:00,55.0,50.0,-100.00,WSW,254,11.0,16.0,83,0.00,,,-99.99,,2013-08-15 00:23:00,
2013-08-14 16:52:00,56.0,48.0,-100.00,WSW,258,10.0,13.0,77,0.00,,,-99.99,,2013-08-15 00:52:00,
2013-08-14 17:01:00,56.0,48.0,-100.00,WSW,258,10.0,13.0,77,0.00,,,-99.99,,2013-08-15 01:01:00,
2013-08-14 18:30:00,54.0,49.0,-100.00,WSW,253,12.0,14.0,82,0.00,,,-99.99,,2013-08-15 02:30:00,
2013-08-14 19:22:00,54.0,49.0,-100.00,WSW,253,12.0,14.0,82,0.00,,,-99.99,,2013-08-15 03:22:00,
2013-08-14 19:30:00,54.0,49.0,-100.00,WSW,254,11.0,14.0,81,0.00,,,-99.99,,2013-08-15 03:30:00,
2013-08-14 19:53:00,54.0,49.0,-100.00,WSW,254,11.0,14.0,81,0.00,,,-99.99,,2013-08-15 03:53:00,
2013-08-14 20:03:00,54.0,49.0,-100.00,WSW,254,11.0,14.0,81,0.00,,,-99.99,,2013-08-15 04:03:00,
2013-08-14 20:12:00,54.0,49.0,-100.00,WSW,254,11.0,14.0,81,0.00,,,-99.99,,2013-08-15 04:12:00,
2013-08-14 20:22:00,54.0,49.0,-100.00,WSW,254,11.0,14.0,81,0.00,,,-99.99,,2013-08-15 04:22:00,
2013-08-14 20:30:00,54.0,50.0,-100.00,WSW,246,7.0,11.0,86,0.00,,,-99.99,,2013-08-15 04:30:00,
2013-08-14 20:52:00,54.0,50.0,-100.00,WSW,246,7.0,11.0,86,0.00,,,-99.99,,2013-08-15 04:52:00,
2013-08-14 21:02:00,54.0,50.0,-100.00,WSW,246,7.0,11.0,86,0.00,,,-99.99,,2013-08-15 05:02:00,
2013-08-14 21:12:00,54.0,50.0,-100.00,WSW,246,7.0,11.0,86,0.00,,,-99.99,,2013-08-15 05:12:00,
2013-08-14 21:22:00,54.0,50.0,-100.00,WSW,246,7.0,11.0,86,0.00,,,-99.99,,2013-08-15 05:22:00,
2013-08-14 21:30:00,54.0,50.0,-100.00,SW,232,5.0,7.0,85,0.00,,,-99.99,,2013-08-15 05:30:00,
2013-08-14 21:52:00,54.0,50.0,-100.00,SW,232,5.0,7.0,85,0.00,,,-99.99,,2013-08-15 05:52:00,
2013-08-14 22:02:00,54.0,50.0,-100.00,SW,232,5.0,7.0,85,0.00,,,-99.99,,2013-08-15 06:02:00,
2013-08-14 22:11:00,54.0,50.0,-100.00,SW,232,5.0,7.0,85,0.00,,,-99.99,,2013-08-15 06:11:00,
2013-08-14 22:21:00,54.0,50.0,-100.00,SW,232,5.0,7.0,85,0.00,,,-99.99,,2013-08-15 06:21:00,
2013-08-14 22:30:00,53.0,49.0,-100.00,WSW,248,3.0,5.0,87,0.00,,,-99.99,,2013-08-15 06:30:00,
2013-08-14 22:52:00,53.0,49.0,-100.00,WSW,248,3.0,5.0,87,0.00,,,-99.99,,2013-08-15 06:52:00,
2013-08-14 23:02:00,53.0,49.0,-100.00,WSW,248,3.0,5.0,87,0.00,,,-99.99,,2013-08-15 07:02:00,
2013-08-14 23:11:00,53.0,49.0,-100.00,WSW,248,3.0,5.0,87,0.00,,,-99.99,,2013-08-15 07:11:00,
2013-08-14 23:21:00,53.0,49.0,-100.00,WSW,248,3.0,5.0,87,0.00,,,-99.99,,2013-08-15 07:21:00,
2013-08-14 23:30:00,52.0,49.0,-100.00,SW,235,3.0,3.0,88,0.00,,,-99.99,,2013-08-15 07:30:00,
2013-08-14 23:52:00,52.0,49.0,-100.00,SW,235,3.0,3.0,88,0.00,,,-99.99,,2013-08-15 07:52:00,